When you browse on this site, cookies collect data to enhance your experience and personalize the content and advertising you see.
Visit our Privacy Policy to learn more. By continuing to use the site, you agree to this use of cookies and data.
  • In Hungary
  • List of Countries
  • For 7 days
  • Water Temperature
  • Satellite Maps
  • Weather Map
  • News
  • Weather Widgets
  • user-avatar
    Login

    Hourly Weather Leichlingen

    Today, 24 February, Sunday

    Time Temperature Precipitation Wind Pressure Humidity
    00:00 +4°C° 0 mm 3 mps 769 mmHg 47%
    01:00 +3°C° 0 mm 3 mps 769 mmHg 46%
    02:00 +3°C° 0 mm 3 mps 769 mmHg 44%
    03:00 +3°C° 0 mm 3 mps 769 mmHg 42%
    04:00 +3°C° 0 mm 3 mps 769 mmHg 41%
    05:00 +3°C° 0 mm 2 mps 769 mmHg 40%
    06:00 +3°C° 0 mm 2 mps 769 mmHg 40%
    07:00 +4°C° 0 mm 2 mps 769 mmHg 37%
    08:00 +6°C° 0 mm 2 mps 769 mmHg 34%
    09:00 +7°C° 0 mm 2 mps 769 mmHg 32%
    10:00 +8°C° 0 mm 2 mps 769 mmHg 30%
    11:00 +10°C° 0 mm 2 mps 769 mmHg 29%
    12:00 +13°C° 0 mm 2 mps 769 mmHg 28%
    13:00 +13°C° 0 mm 2 mps 769 mmHg 29%
    14:00 +14°C° 0 mm 1 mps 769 mmHg 30%
    15:00 +14°C° 0 mm 1 mps 769 mmHg 32%
    16:00 +13°C° 0 mm 1 mps 769 mmHg 36%
    17:00 +11°C° 0 mm 1 mps 769 mmHg 39%
    18:00 +10°C° 0 mm 1 mps 769 mmHg 43%
    19:00 +9°C° 0 mm 1 mps 769 mmHg 45%
    20:00 +9°C° 0 mm 1 mps 769 mmHg 47%
    21:00 +8°C° 0 mm 1 mps 770 mmHg 49%
    22:00 +8°C° 0 mm 1 mps 770 mmHg 49%
    23:00 +8°C° 0 mm 1 mps 770 mmHg 50%

    Tomorrow, 25 February, Monday

    Time Temperature Precipitation Wind Pressure Humidity
    00:00 +8°C° 0 mm 1 mps 770 mmHg 50%
    01:00 +7°C° 0 mm 1 mps 770 mmHg 50%
    02:00 +7°C° 0 mm 1 mps 770 mmHg 50%
    03:00 +7°C° 0 mm 1 mps 770 mmHg 51%
    04:00 +7°C° 0 mm 1 mps 770 mmHg 51%
    05:00 +6°C° 0 mm 1 mps 770 mmHg 52%
    06:00 +6°C° 0 mm 1 mps 770 mmHg 52%
    07:00 +8°C° 0 mm 1 mps 770 mmHg 50%
    08:00 +9°C° 0 mm 1 mps 770 mmHg 48%
    09:00 +10°C° 0 mm 1 mps 770 mmHg 46%
    10:00 +12°C° 0 mm 1 mps 770 mmHg 43%
    11:00 +14°C° 0 mm 1 mps 770 mmHg 40%
    12:00 +16°C° 0 mm 1 mps 770 mmHg 37%
    13:00 +16°C° 0 mm 1 mps 769 mmHg 38%
    14:00 +16°C° 0 mm 1 mps 769 mmHg 39%
    15:00 +16°C° 0 mm 0 mps 769 mmHg 40%
    16:00 +15°C° 0 mm 1 mps 769 mmHg 44%
    17:00 +13°C° 0 mm 1 mps 769 mmHg 49%
    18:00 +12°C° 0 mm 1 mps 769 mmHg 54%
    19:00 +11°C° 0 mm 1 mps 769 mmHg 57%
    20:00 +11°C° 0 mm 1 mps 769 mmHg 60%
    21:00 +10°C° 0 mm 1 mps 769 mmHg 63%
    22:00 +10°C° 0 mm 1 mps 769 mmHg 65%
    23:00 +9°C° 0 mm 1 mps 769 mmHg 67%

    Day after tomorrow, 26 February, Tuesday

    Time Temperature Precipitation Wind Pressure Humidity
    00:00 +9°C° 0 mm 1 mps 769 mmHg 69%
    01:00 +9°C° 0 mm 1 mps 768 mmHg 70%
    02:00 +8°C° 0 mm 1 mps 768 mmHg 71%
    03:00 +8°C° 0 mm 1 mps 767 mmHg 72%
    04:00 +8°C° 0 mm 1 mps 767 mmHg 72%
    05:00 +8°C° 0 mm 1 mps 767 mmHg 72%
    06:00 +7°C° 0 mm 1 mps 767 mmHg 71%
    07:00 +9°C° 0 mm 1 mps 767 mmHg 66%
    08:00 +10°C° 0 mm 1 mps 767 mmHg 61%
    09:00 +12°C° 0 mm 1 mps 767 mmHg 56%
    10:00 +13°C° 0 mm 1 mps 767 mmHg 51%
    11:00 +15°C° 0 mm 1 mps 767 mmHg 46%
    12:00 +16°C° 0 mm 0 mps 767 mmHg 41%
    13:00 +16°C° 0 mm 0 mps 767 mmHg 40%
    14:00 +16°C° 0 mm 0 mps 766 mmHg 40%
    15:00 +17°C° 0 mm 0 mps 766 mmHg 40%
    16:00 +16°C° 0 mm 1 mps 766 mmHg 45%
    17:00 +14°C° 0 mm 1 mps 766 mmHg 50%
    18:00 +13°C° 0 mm 1 mps 766 mmHg 55%
    19:00 +12°C° 0 mm 1 mps 766 mmHg 57%
    20:00 +12°C° 0 mm 1 mps 766 mmHg 60%
    21:00 +11°C° 0 mm 1 mps 766 mmHg 62%
    22:00 +11°C° 0 mm 1 mps 765 mmHg 64%
    23:00 +10°C° 0 mm 1 mps 765 mmHg 65%

    27 February, Wednesday

    Time Temperature Precipitation Wind Pressure Humidity
    00:00 +10°C° 0 mm 1 mps 765 mmHg 67%
    01:00 +9°C° 0 mm 1 mps 765 mmHg 66%
    02:00 +8°C° 0 mm 2 mps 764 mmHg 65%
    03:00 +8°C° 0 mm 2 mps 764 mmHg 64%
    04:00 +7°C° 0 mm 2 mps 764 mmHg 63%
    05:00 +7°C° 0 mm 2 mps 764 mmHg 61%
    06:00 +7°C° 0 mm 2 mps 763 mmHg 60%
    07:00 +8°C° 0 mm 2 mps 763 mmHg 56%
    08:00 +10°C° 0 mm 2 mps 763 mmHg 52%
    09:00 +12°C° 0 mm 2 mps 763 mmHg 48%
    10:00 +14°C° 0 mm 2 mps 763 mmHg 45%
    11:00 +15°C° 0 mm 2 mps 762 mmHg 42%
    12:00 +17°C° 0 mm 2 mps 762 mmHg 38%
    13:00 +17°C° 0 mm 2 mps 761 mmHg 38%
    14:00 +18°C° 0 mm 2 mps 761 mmHg 38%
    15:00 +19°C° 0 mm 1 mps 760 mmHg 38%
    16:00 +16°C° 0 mm 1 mps 760 mmHg 44%
    17:00 +15°C° 0 mm 1 mps 760 mmHg 49%
    18:00 +13°C° 0 mm 1 mps 760 mmHg 55%
    19:00 +12°C° 0 mm 1 mps 760 mmHg 58%
    20:00 +12°C° 0 mm 1 mps 760 mmHg 62%
    21:00 +11°C° 0 mm 1 mps 760 mmHg 65%
    22:00 +10°C° 0 mm 1 mps 759 mmHg 68%
    23:00 +10°C° 0 mm 1 mps 759 mmHg 72%

    28 February, Thursday

    Time Temperature Precipitation Wind Pressure Humidity
    00:00 +9°C° 0 mm 1 mps 759 mmHg 75%
    01:00 +9°C° 0 mm 1 mps 759 mmHg 77%
    02:00 +9°C° 0 mm 1 mps 758 mmHg 79%
    03:00 +8°C° 0 mm 1 mps 758 mmHg 81%
    04:00 +8°C° 0 mm 1 mps 758 mmHg 82%
    05:00 +8°C° 0 mm 1 mps 758 mmHg 83%
    06:00 +7°C° 0 mm 1 mps 758 mmHg 84%
    07:00 +9°C° 0 mm 1 mps 758 mmHg 80%
    08:00 +10°C° 0 mm 1 mps 758 mmHg 76%
    09:00 +11°C° 0 mm 1 mps 758 mmHg 72%
    10:00 +12°C° 0 mm 2 mps 758 mmHg 68%
    11:00 +14°C° 0 mm 2 mps 758 mmHg 64%
    12:00 +15°C° 0 mm 2 mps 757 mmHg 60%
    13:00 +16°C° 0 mm 2 mps 757 mmHg 60%
    14:00 +16°C° 0 mm 2 mps 757 mmHg 59%
    15:00 +16°C° 0 mm 3 mps 757 mmHg 59%
    16:00 +15°C° 0 mm 2 mps 757 mmHg 66%
    17:00 +13°C° 0 mm 2 mps 757 mmHg 73%
    18:00 +12°C° 0 mm 1 mps 757 mmHg 79%
    19:00 +11°C° 0 mm 1 mps 757 mmHg 82%
    20:00 +11°C° 0 mm 1 mps 758 mmHg 84%
    21:00 +10°C° 0 mm 1 mps 758 mmHg 86%
    22:00 +10°C° 0 mm 1 mps 758 mmHg 87%
    23:00 +9°C° 0 mm 1 mps 758 mmHg 87%

    1 March, Friday

    Time Temperature Precipitation Wind Pressure Humidity
    00:00 +9°C° 0 mm 1 mps 758 mmHg 88%
    01:00 +9°C° 0 mm 1 mps 758 mmHg 88%
    02:00 +8°C° 0 mm 1 mps 758 mmHg 89%
    03:00 +8°C° 0 mm 1 mps 758 mmHg 89%
    04:00 +8°C° 0 mm 1 mps 758 mmHg 90%
    05:00 +7°C° 0 mm 1 mps 758 mmHg 91%
    06:00 +7°C° 0 mm 1 mps 758 mmHg 92%
    07:00 +8°C° 0 mm 1 mps 759 mmHg 87%
    08:00 +9°C° 0 mm 1 mps 759 mmHg 81%
    09:00 +10°C° 0 mm 1 mps 759 mmHg 76%
    10:00 +11°C° 0 mm 1 mps 759 mmHg 69%
    11:00 +13°C° 0 mm 2 mps 759 mmHg 62%
    12:00 +14°C° 0 mm 2 mps 759 mmHg 55%
    13:00 +14°C° 0 mm 2 mps 759 mmHg 51%
    14:00 +14°C° 0 mm 2 mps 758 mmHg 48%
    15:00 +13°C° 0 mm 3 mps 758 mmHg 45%
    16:00 +13°C° 0 mm 2 mps 758 mmHg 47%
    17:00 +10°C° 0 mm 2 mps 759 mmHg 49%
    18:00 +9°C° 0 mm 2 mps 759 mmHg 52%
    19:00 +8°C° 0 mm 2 mps 759 mmHg 55%
    20:00 +8°C° 0 mm 2 mps 759 mmHg 58%
    21:00 +7°C° 0 mm 2 mps 759 mmHg 61%
    22:00 +8°C° 0 mm 1 mps 760 mmHg 66%
    23:00 +7°C° 0 mm 1 mps 760 mmHg 71%
    Show more